TimeMST,TemperatureF,Dew PointF,Humidity,Sea Level PressureIn,VisibilityMPH,Wind Direction,Wind SpeedMPH,Gust SpeedMPH,PrecipitationIn,Events,Conditions,WindDirDegrees,DateUTC
12:53 AM,36.0,27.0,70,29.72,10.0,SW,25.3,32.2,N/A,,Clear,230,2013-02-06 07:53:00
1:53 AM,34.0,26.1,73,29.74,10.0,SW,18.4,-,N/A,,Clear,230,2013-02-06 08:53:00
2:53 AM,32.0,25.0,75,29.78,10.0,SW,18.4,-,N/A,,Mostly Cloudy,230,2013-02-06 09:53:00
3:53 AM,32.0,25.0,75,29.79,10.0,WSW,9.2,-,N/A,,Overcast,250,2013-02-06 10:53:00
4:53 AM,30.2,24.8,80,29.74,10.0,West,8.1,-,N/A,,Overcast,270,2013-02-06 11:53:00
5:53 AM,28.0,21.9,78,29.84,10.0,SSW,9.2,-,N/A,,Mostly Cloudy,210,2013-02-06 12:53:00
6:53 AM,28.0,21.9,78,29.85,10.0,SSW,6.9,-,N/A,,Partly Cloudy,210,2013-02-06 13:53:00
7:53 AM,30.0,23.0,75,29.85,10.0,SW,8.1,-,N/A,,Overcast,230,2013-02-06 14:53:00
8:53 AM,28.9,21.9,75,29.87,10.0,WSW,10.4,-,N/A,,Overcast,240,2013-02-06 15:53:00
9:53 AM,32.0,24.1,73,29.89,10.0,WSW,8.1,-,N/A,,Clear,250,2013-02-06 16:53:00
10:53 AM,35.1,25.0,67,29.89,10.0,SW,13.8,-,N/A,,Mostly Cloudy,230,2013-02-06 17:53:00
11:53 AM,37.0,26.1,65,29.88,10.0,SW,15.0,-,N/A,,Partly Cloudy,220,2013-02-06 18:53:00
12:53 PM,37.0,27.0,67,29.88,10.0,SSW,12.7,-,N/A,,Partly Cloudy,210,2013-02-06 19:53:00
1:53 PM,37.9,28.0,68,29.88,10.0,SW,11.5,-,N/A,,Clear,220,2013-02-06 20:53:00
2:53 PM,39.0,28.9,67,29.89,10.0,SSW,13.8,-,N/A,,Mostly Cloudy,210,2013-02-06 21:53:00
3:53 PM,37.9,28.9,70,29.91,10.0,SW,12.7,-,N/A,,Clear,220,2013-02-06 22:53:00
4:53 PM,37.0,28.0,70,29.92,10.0,SSW,15.0,-,N/A,,Overcast,210,2013-02-06 23:53:00
5:53 PM,35.1,27.0,72,29.96,10.0,SW,12.7,-,N/A,,Clear,230,2013-02-07 00:53:00
6:53 PM,34.0,25.0,70,29.98,10.0,WSW,13.8,-,N/A,,Clear,240,2013-02-07 01:53:00
7:53 PM,32.0,24.1,73,30.00,10.0,SW,11.5,-,N/A,,Clear,230,2013-02-07 02:53:00
8:53 PM,30.9,23.0,72,30.02,10.0,SW,13.8,-,N/A,,Clear,230,2013-02-07 03:53:00
9:53 PM,32.0,23.0,69,30.04,10.0,SW,16.1,-,N/A,,Clear,230,2013-02-07 04:53:00
10:53 PM,32.0,23.0,69,30.05,10.0,SW,15.0,-,N/A,,Partly Cloudy,220,2013-02-07 05:53:00
11:53 PM,33.1,23.0,66,30.05,10.0,SW,17.3,-,N/A,,Clear,220,2013-02-07 06:53:00